Flag for Germany Weather past 2 weeks in Aalen, Baden-Württemberg, Germany

Now
56 °F

Partly sunny.


Feels Like: 53 °F
Forecast: 37 / 42 °F
Wind: 9 mph from West

Location: Stoetten

Current Time: Oct 21, 2014 at 3:05:15 PM

Latest Report: Oct 21, 2014 at 2:00 PM


Visibility: 47 mi

Pressure: 29.82 "Hg

Humidity: 72%

Dew point: 47 °F

Location of AalenLocation

Historic Weather in Aalen — Graph

°F

Aalen temperature yesterday

Maximum temperature yesterday: 62 °F (at 12:00 AM)
Minimum temperature yesterday: 52 °F (at 11:00 PM)
Average temperature yesterday: 58 °F

Past Weeks' High & Low Weather Summary

 TemperatureHumidityPressure
High74 °F (Oct 9, 3:00 PM)100% (Oct 6, 6:00 PM)30.25 "Hg (Oct 6, 6:00 PM)
Low47 °F (Oct 18, 8:00 AM)41% (Oct 9, 3:00 PM)29.75 "Hg (Oct 15, 5:00 PM)
Average56 °F87%29.93 "Hg
* Reported Oct 6 2:00 PM — Oct 21 2:00 PM, Aalen, Weather by CustomWeather, © 2014

Note: Actual official high and low records may vary slightly from our data, if they occured in-between our weather recording intervals... More about our weather records

Advertising

Aalen weather history for previous 24 hours

 ConditionsComfort  
Time TempWeatherWind HumidityBarometerVisibility
2:00 PM
Oct 21
56 °FPartly sunny.9 mph72%29.82 "Hg47 mi
1:00 PM55 °FPartly sunny.9 mph79%29.86 "Hg47 mi
12:00 PM55 °FPartly sunny.9 mph85%29.88 "Hg43 mi
11:00 AM52 °FLow clouds.8 mph92%29.92 "Hg31 mi
10:00 AM51 °FLow clouds.7 mph95%29.94 "Hg31 mi
9:00 AM50 °FPartly sunny.3 mph93%29.94 "Hg31 mi
8:00 AM48 °FOvercast.2 mph94%29.96 "Hg31 mi
7:00 AM49 °FOvercast.5 mph92%29.96 "Hg31 mi
6:00 AM49 °FOvercast.6 mph94%29.98 "Hg25 mi
5:00 AM49 °FLow clouds.7 mph99%29.99 "Hg1 mi
4:00 AM50 °FLow clouds.6 mph100%30.00 "Hg1 mi
3:00 AM51 °FDrizzle. Low clouds.6 mph100%30.02 "Hg1 mi
2:00 AM51 °FLight freezing rain. Low clouds.6 mph99%30.02 "Hg1 mi
1:00 AM51 °FLight rain. Low clouds.6 mph98%30.01 "Hg6 mi
12:00 AM52 °FLight rain. Low clouds.6 mph98%30.02 "Hg3 mi
11:00 PM
Oct 20
52 °FLight freezing rain. Low clouds.7 mph97%30.03 "Hg5 mi
10:00 PM54 °FLight rain. Low clouds.6 mph99%30.03 "Hg0 mi
9:00 PM54 °FLow clouds.5 mph99%30.03 "Hg9 mi
8:00 PM54 °FLight rain. Low clouds.3 mph98%30.04 "Hg9 mi
7:00 PM55 °FLight rain. Low clouds.5 mph99%30.05 "Hg8 mi
6:00 PM56 °FLow clouds.5 mph98%30.04 "Hg5 mi
5:00 PM56 °FLight rain. Low clouds.5 mph98%30.05 "Hg7 mi
4:00 PM57 °FLight rain. Low clouds.3 mph95%30.06 "Hg19 mi
3:00 PM60 °FOvercast.5 mph86%30.06 "Hg22 mi
Weather by CustomWeather, © 2014

See weather overviewHow to use our weather pages